Location: Unspecified
(43.4680°N, 87.1740°E)
Time: 21:44:15
(UTC+00:00)

ARGOS Delta rocket - Pass Details

Date: 17 April 2021
Orbit: 634 x 839 km, 96.5° (Epoch: 11 May)

Event Time Altitude Azimuth Distance (km) Brightness Sun altitude
Rises 21:06:08 0° 5° (N) 2,980 7.8 -22.7°
Reaches altitude 10° 21:08:26 10° 360° (N) 2,048 6.7 -22.4°
Maximum altitude 21:12:42 48° 286° (WNW) 836 3.9 -21.8°
Enters shadow 21:12:45 48° 283° (WNW) 836 3.9 -21.8°
